Location: Barcelona
(41.3830°N, 2.1830°E)
Time: 16:01:25
(UTC+02:00)

ISS - Pass Details

Date: 11 March 2021
Orbit: 418 x 422 km, 51.6° (Epoch: 16 April)

Event Time Altitude Azimuth Distance (km) Brightness Sun altitude
Exits shadow 05:00:31 33° 50° (NE) 722 -2.1 -24.7°
Drops below altitude 10° 05:03:04 10° 96° (E) 1,478 -0.1 -24.3°
Sets 05:05:19 0° 105° (ESE) 2,355 1.0 -23.9°
